[[{"header":{"parameterUnit":"m.s-1","parameterCategory":1,"la1":30.2991,"la2":30.254,"lo1":-89.0895,"lo2":-89.0444,"dy":0.0017,"dx":0.0017,"nx":28,"ny":28,"refTime":"2024-04-21T09:00:00:Z","depth":0,"parameterNumber":2,"parameterNumberName":"U-component_of_WINDS"},"data":[0,0,0,0,0,0,0,0,0,0,0,0,0,0,0,0,0,0,0,0,0,0,0,0,0,0,0,0,0,0,0,0,0,0,0,0,0,0,0,0,0,0,0,0,0,0,0,0,0,0,0,0,0,0,0,0,0,0,-1.0207,-1.0207,0,-1.0188,-1.0187,-1.0187,-1.0164,-1.0163,-1.0163,-1.0163,-1.0142,-1.0142,-1.0142,0,0,0,0,0,0,0,0,0,0,0,0,0,-1.0222,-1.0222,-1.0207,-1.0207,-1.0206,-1.0188,-1.0187,-1.0187,-1.0164,-1.0163,-1.0163,-1.0162,-1.0142,-1.0142,-1.0142,0,0,0,0,0,0,0,0,0,0,0,0,0,-1.021,-1.0221,-1.0207,-1.0192,-1.0191,-1.0188,-1.0187,-1.0187,-1.0164,-1.0163,-1.0163,-1.0162,-1.0142,-1.0142,-1.0142,-1.0151,0,0,-1.0141,-1.0141,0,0,0,0,0,0,0,0,-1.0211,-1.021,-1.0195,-1.0193,-1.0192,-1.0177,-1.0185,-1.0175,-1.0164,-1.0174,-1.0163,-1.0162,-1.0154,-1.0153,-1.0151,-1.015,-1.0149,-1.0141,-1.0141,-1.0141,-1.014,0,0,0,0,0,0,0,-1.0212,-1.021,-1.0199,-1.0195,-1.0193,-1.0186,-1.0184,-1.0183,-1.0168,-1.0173,-1.0171,-1.017,-1.0153,-1.0151,-1.015,-1.0149,-1.0141,-1.0141,-1.014,-1.014,-1.0153,-1.0153,0,0,0,0,0,0,-1.0215,-1.0211,-1.02,-1.0199,-1.02,-1.0187,-1.0184,-1.0183,-1.0167,-1.0165,-1.017,-1.0169,-1.0152,-1.015,-1.0149,-1.0158,-1.0141,-1.014,-1.014,-1.0152,-1.0153,-1.0153,0,0,0,0,0,0,-1.0215,-1.0214,-1.02,-1.0204,-1.0202,-1.0187,-1.0185,-1.0182,-1.018,-1.0165,-1.0162,-1.017,-1.0151,-1.015,-1.015,-1.0157,-1.014,-1.014,-1.0152,-1.0152,-1.0153,-1.0176,0,0,0,0,0,0,-1.0216,-1.0214,-1.0218,-1.0205,-1.0202,-1.0203,-1.0186,-1.0183,-1.018,-1.0177,-1.0165,-1.0162,-1.0151,-1.0151,-1.015,-1.0156,-1.014,-1.0151,-1.0152,-1.0153,-1.0174,-1.0177,-1.018,0,0,0,0,0,-1.0216,-1.0225,-1.0218,-1.0217,-1.0206,-1.0203,-1.0201,-1.0189,-1.018,-1.0184,-1.0174,-1.0162,-1.0156,-1.0151,-1.015,-1.0156,-1.015,-1.0152,-1.0153,-1.0173,-1.0177,-1.018,0,0,0,0,0,0,-1.024,-1.0223,-1.0215,-1.0221,-1.0213,-1.0199,-1.0203,-1.0193,-1.0188,-1.0186,-1.017,-1.0167,-1.0169,-1.0163,-1.0157,-1.0163,-1.0152,-1.0152,-1.0167,-1.0171,-1.0173,-1.0175,-1.0139,0,0,0,0,0,-1.0246,-1.0245,-1.023,-1.0236,-1.0233,-1.0219,-1.0217,-1.0207,-1.0199,-1.0196,-1.0186,-1.0178,-1.0174,-1.0172,-1.0168,-1.0173,-1.0169,-1.0176,-1.0179,-1.0181,-1.0182,-1.0183,-1.0186,-1.0157,-1.0157,-1.0157,0,0,-1.0258,-1.0249,-1.0249,-1.0241,-1.0234,-1.0232,-1.0216,-1.0216,-1.0214,-1.0196,-1.0195,-1.0188,-1.0178,-1.0181,-1.0181,-1.0175,-1.0189,-1.0183,-1.0185,-1.0184,-1.0185,-1.0188,-1.019,-1.0158,-1.0158,-1.0158,0,0,-1.0279,-1.0273,-1.0276,-1.0269,-1.0259,-1.025,-1.0251,-1.0237,-1.0232,-1.0231,-1.0217,-1.0214,-1.0208,-1.0202,-1.0197,-1.0214,-1.0203,-1.0213,-1.0227,-1.0228,-1.0231,-1.0233,-1.0238,-1.024,-1.0214,-1.0214,-1.0214,0,-1.0296,-1.0293,-1.0279,-1.0279,-1.0276,-1.0258,-1.0261,-1.0255,-1.0244,-1.0242,-1.0235,-1.0226,-1.0218,-1.0219,-1.0223,-1.022,-1.022,-1.0215,-1.0231,-1.0233,-1.0235,-1.024,-1.0242,-1.0216,-1.0216,-1.0215,-1.0215,0,-1.0313,-1.0312,-1.0316,-1.0306,-1.0302,-1.0304,-1.0289,-1.0287,-1.0278,-1.0268,-1.0267,-1.0257,-1.025,-1.0249,-1.024,-1.0248,-1.0244,-1.0235,-1.0223,-1.0239,-1.0243,-1.0245,-1.0217,-1.0217,-1.0217,-1.0216,0,0,-1.035,-1.0331,-1.0332,-1.0327,-1.0314,-1.0312,-1.0313,-1.0305,-1.0304,-1.0296,-1.0295,-1.029,-1.0281,-1.0276,-1.0266,-1.0267,-1.0279,-1.0257,-1.0256,-1.0261,-1.0286,-1.0293,-1.0296,-1.0272,-1.0272,-1.0273,-1.0287,0,-1.0368,-1.0368,-1.0355,-1.0358,-1.0356,-1.0339,-1.0339,-1.033,-1.0321,-1.0317,-1.0307,-1.0303,-1.0292,-1.0289,-1.0289,-1.0278,-1.0284,-1.0277,-1.027,-1.027,-1.0273,-1.0298,-1.0305,-1.0319,-1.0288,-1.0289,-1.0289,0,-1.039,-1.0384,-1.0387,-1.0373,-1.0371,-1.0372,-1.0363,-1.036,-1.035,-1.0343,-1.0337,-1.0325,-1.0323,-1.0312,-1.0308,-1.0303,-1.03,-1.0294,-1.0294,-1.0293,-1.0281,-1.0297,-1.0324,-1.0325,-1.0291,-1.0291,-1.0291,0,-1.0416,-1.0408,-1.0408,-1.0404,-1.0388,-1.0388,-1.0381,-1.037,-1.0366,-1.0359,-1.0356,-1.0348,-1.0344,-1.0338,-1.0324,-1.0317,-1.0321,-1.0309,-1.0315,-1.0315,-1.0317,-1.0317,-1.0343,-1.0315,-1.0315,-1.0315,-1.0315,0,-1.0438,-1.044,-1.0419,-1.042,-1.0421,-1.0405,-1.0407,-1.0399,-1.0389,-1.0386,-1.0371,-1.0369,-1.035,-1.0346,-1.0335,-1.0333,-1.0331,-1.0325,-1.0322,-1.0326,-1.0327,-1.0324,-1.0322,-1.0316,-1.0316,-1.0316,-1.0315,0,-1.0467,-1.0453,-1.0452,-1.0436,-1.0432,-1.0434,-1.042,-1.0419,-1.0409,-1.0406,-1.0404,-1.0388,-1.0382,-1.0367,-1.0357,-1.0349,-1.035,-1.0345,-1.0353,-1.0351,-1.0358,-1.0357,-1.0382,-1.0385,-1.0356,-1.0356,-1.0357,0,-1.0481,-1.0483,-1.0467,-1.0464,-1.0458,-1.0454,-1.045,-1.0434,-1.043,-1.0417,-1.0417,-1.041,-1.0403,-1.0394,-1.038,-1.0372,-1.0366,-1.0375,-1.0365,-1.0369,-1.0365,-1.0365,-1.0365,-1.0378,-1.0378,-1.0379,-1.0379,0,-1.0509,-1.0502,-1.0496,-1.0488,-1.0484,-1.0477,-1.0469,-1.0467,-1.0449,-1.0445,-1.0439,-1.0433,-1.0422,-1.0415,-1.0404,-1.0396,-1.0384,-1.0382,-1.0383,-1.0387,-1.0392,-1.0389,-1.0359,-1.0382,-1.0381,-1.0381,-1.0381,-1.0381,-1.0531,-1.053,-1.0519,-1.0513,-1.0505,-1.0498,-1.0496,-1.0485,-1.048,-1.047,-1.046,-1.0454,-1.0442,-1.0427,-1.0419,-1.0414,-1.0408,-1.0409,-1.041,-1.041,-1.0412,-1.0393,-1.0412,-1.0412,-1.0412,-1.0412,-1.0412,0,-1.0557,-1.0548,-1.0543,-1.0532,-1.0527,-1.0516,-1.0507,-1.0503,-1.0498,-1.0488,-1.0482,-1.0473,-1.0465,-1.0451,-1.0442,-1.044,-1.0434,-1.0438,-1.0438,-1.0436,-1.0418,-1.0418,-1.0443,-1.0443,-1.0443,-1.0443,-1.0443,-1.0443,-1.057,-1.0569,-1.056,-1.0554,-1.0546,-1.054,-1.0535,-1.0528,-1.052,-1.0511,-1.0505,-1.0495,-1.0483,-1.0472,-1.0464,-1.046,-1.0457,-1.0463,-1.0457,-1.044,-1.0437,-1.0434,-1.0434,-1.0462,-1.0462,-1.0475,-1.0475,-1.0475]},{"header":{"parameterUnit":"m.s-1","parameterCategory":1,"la1":30.2991,"la2":30.254,"lo1":-89.0895,"lo2":-89.0444,"dy":0.0017,"dx":0.0017,"nx":28,"ny":28,"refTime":"2024-04-21T09:00:00:Z","depth":0,"parameterNumber":3,"parameterNumberName":"V-component_of_WINDS"},"data":[0,0,0,0,0,0,0,0,0,0,0,0,0,0,0,0,0,0,0,0,0,0,0,0,0,0,0,0,0,0,0,0,0,0,0,0,0,0,0,0,0,0,0,0,0,0,0,0,0,0,0,0,0,0,0,0,0,0,-7.4157,-7.4158,0,-7.4263,-7.4265,-7.4266,-7.4225,-7.4222,-7.422,-7.4218,-7.4321,-7.4325,-7.433,0,0,0,0,0,0,0,0,0,0,0,0,0,-7.3912,-7.3917,-7.4156,-7.4158,-7.4159,-7.4263,-7.4265,-7.4266,-7.4225,-7.4222,-7.4219,-7.4217,-7.4319,-7.4325,-7.4331,0,0,0,0,0,0,0,0,0,0,0,0,0,-7.4018,-7.3918,-7.4156,-7.4152,-7.4152,-7.4263,-7.4265,-7.4266,-7.4226,-7.4222,-7.4219,-7.4215,-7.4317,-7.4324,-7.4332,-7.4451,0,0,-7.4355,-7.4358,0,0,0,0,0,0,0,0,-7.4012,-7.4027,-7.4151,-7.4152,-7.4153,-7.4227,-7.4216,-7.4328,-7.4227,-7.4198,-7.4218,-7.4213,-7.4292,-7.4301,-7.4329,-7.4456,-7.4461,-7.4355,-7.436,-7.4363,-7.4365,0,0,0,0,0,0,0,-7.4005,-7.4022,-7.4198,-7.4153,-7.4154,-7.4142,-7.4153,-7.4237,-7.4264,-7.42,-7.4197,-7.4211,-7.4292,-7.4322,-7.4331,-7.4462,-7.4355,-7.4362,-7.4366,-7.4369,-7.4694,-7.4697,0,0,0,0,0,0,-7.3998,-7.4016,-7.4195,-7.4202,-7.4072,-7.415,-7.4162,-7.4207,-7.4263,-7.4268,-7.4214,-7.4209,-7.4311,-7.4323,-7.4335,-7.448,-7.4363,-7.437,-7.4374,-7.469,-7.4694,-7.4699,0,0,0,0,0,0,-7.3993,-7.4014,-7.4191,-7.4109,-7.413,-7.4158,-7.4209,-7.4211,-7.4241,-7.4274,-7.4277,-7.424,-7.4309,-7.4324,-7.4423,-7.4482,-7.4374,-7.438,-7.4685,-7.4691,-7.4697,-7.4769,0,0,0,0,0,0,-7.3986,-7.4013,-7.406,-7.411,-7.4135,-7.428,-7.4212,-7.4216,-7.4255,-7.4249,-7.4299,-7.4304,-7.4307,-7.4412,-7.4431,-7.4491,-7.4386,-7.4679,-7.4688,-7.4695,-7.4762,-7.4777,-7.4791,0,0,0,0,0,-7.3977,-7.4074,-7.4062,-7.4084,-7.4194,-7.4283,-7.4297,-7.43,-7.426,-7.4307,-7.4328,-7.4302,-7.4473,-7.4423,-7.4443,-7.4506,-7.4676,-7.4685,-7.4694,-7.4755,-7.4774,-7.479,0,0,0,0,0,0,-7.4027,-7.4081,-7.4068,-7.4184,-7.423,-7.4276,-7.4335,-7.432,-7.4376,-7.4368,-7.4367,-7.4379,-7.4482,-7.4504,-7.4447,-7.4626,-7.4568,-7.4582,-7.4608,-7.4626,-7.464,-7.4632,-7.4393,0,0,0,0,0,-7.4052,-7.4122,-7.4164,-7.4262,-7.4286,-7.4307,-7.4346,-7.4345,-7.4391,-7.4409,-7.4437,-7.4481,-7.4545,-7.4586,-7.4646,-7.4765,-7.4775,-7.4818,-7.4833,-7.4844,-7.4856,-7.4921,-7.4941,-7.4729,-7.4729,-7.4729,0,0,-7.4104,-7.4141,-7.4185,-7.4273,-7.4308,-7.4379,-7.4323,-7.44,-7.4452,-7.442,-7.4516,-7.4538,-7.4587,-7.4697,-7.4747,-7.4719,-7.4917,-7.4856,-7.4865,-7.4871,-7.4932,-7.4952,-7.497,-7.4735,-7.4734,-7.4733,0,0,-7.4234,-7.427,-7.4356,-7.4393,-7.4448,-7.4462,-7.4483,-7.4532,-7.4546,-7.4644,-7.4621,-7.4682,-7.4792,-7.4828,-7.4861,-7.5007,-7.4985,-7.5026,-7.5101,-7.5164,-7.518,-7.5195,-7.5248,-7.5266,-7.5038,-7.5038,-7.5038,0,-7.429,-7.4398,-7.4402,-7.4482,-7.4521,-7.4498,-7.4585,-7.462,-7.4691,-7.4718,-7.4686,-7.4825,-7.4856,-7.4974,-7.501,-7.5037,-7.506,-7.502,-7.5178,-7.5193,-7.5207,-7.5257,-7.5276,-7.5042,-7.5042,-7.5041,-7.5041,0,-7.4465,-7.454,-7.4603,-7.4675,-7.4721,-7.4804,-7.482,-7.4866,-7.4861,-7.4877,-7.4977,-7.5014,-7.5082,-7.5109,-7.5104,-7.5228,-7.5209,-7.5178,-7.512,-7.5231,-7.5278,-7.5297,-7.5049,-7.5047,-7.5046,-7.5045,0,0,-7.4628,-7.4704,-7.4727,-7.476,-7.4819,-7.4876,-7.4958,-7.5027,-7.5067,-7.5116,-7.5184,-7.5278,-7.5251,-7.5288,-7.5287,-7.5342,-7.5456,-7.5304,-7.5305,-7.5332,-7.5594,-7.5618,-7.564,-7.5443,-7.5446,-7.5449,-7.559,0,-7.4763,-7.4909,-7.4916,-7.5048,-7.5117,-7.5097,-7.5168,-7.5212,-7.523,-7.5289,-7.5308,-7.5375,-7.5333,-7.5356,-7.541,-7.5431,-7.5509,-7.5421,-7.5505,-7.5508,-7.5493,-7.5664,-7.5689,-7.582,-7.5609,-7.5612,-7.5614,0,-7.494,-7.4999,-7.5139,-7.519,-7.522,-7.5284,-7.5348,-7.5406,-7.5454,-7.5463,-7.5506,-7.5497,-7.5579,-7.5519,-7.5632,-7.5572,-7.5607,-7.5622,-7.5627,-7.5635,-7.5568,-7.5677,-7.5862,-7.5882,-7.5643,-7.564,-7.5638,0,-7.5046,-7.516,-7.5259,-7.5287,-7.535,-7.5395,-7.5423,-7.5468,-7.551,-7.5565,-7.5592,-7.5655,-7.569,-7.5738,-7.5746,-7.5702,-7.5859,-7.58,-7.5868,-7.5868,-7.5902,-7.59,-7.6096,-7.5924,-7.5924,-7.5924,-7.5923,0,-7.5197,-7.5283,-7.5308,-7.5368,-7.5464,-7.5471,-7.5565,-7.5589,-7.563,-7.5694,-7.5679,-7.5739,-7.5746,-7.5807,-7.5813,-7.5906,-7.5921,-7.593,-7.5931,-7.5932,-7.5931,-7.5954,-7.5945,-7.5929,-7.5928,-7.5927,-7.5926,0,-7.5331,-7.5351,-7.5458,-7.5509,-7.5524,-7.5592,-7.5635,-7.5693,-7.5709,-7.579,-7.581,-7.5835,-7.5907,-7.592,-7.6003,-7.6008,-7.6119,-7.611,-7.6103,-7.6102,-7.617,-7.6164,-7.6388,-7.6418,-7.6227,-7.6229,-7.623,0,-7.5426,-7.5493,-7.5552,-7.5595,-7.5626,-7.5695,-7.5738,-7.5747,-7.5792,-7.5854,-7.5904,-7.5974,-7.6031,-7.6146,-7.6171,-7.6235,-7.6228,-7.6302,-7.6237,-7.6236,-7.6229,-7.6225,-7.6232,-7.6314,-7.6316,-7.6318,-7.6319,0,-7.5593,-7.56,-7.5664,-7.5732,-7.5785,-7.5838,-7.5888,-7.5924,-7.5939,-7.599,-7.6065,-7.611,-7.6197,-7.6267,-7.6331,-7.6356,-7.6341,-7.634,-7.6359,-7.6361,-7.6355,-7.6359,-7.6137,-7.6334,-7.6333,-7.6332,-7.6331,-7.633,-7.571,-7.5769,-7.5821,-7.5893,-7.5933,-7.5981,-7.6038,-7.6063,-7.6126,-7.62,-7.62,-7.6282,-7.6329,-7.6414,-7.6444,-7.6507,-7.6483,-7.6511,-7.6518,-7.6525,-7.6531,-7.6345,-7.6518,-7.6518,-7.6517,-7.6517,-7.6517,0,-7.5877,-7.591,-7.5976,-7.6049,-7.6106,-7.6088,-7.6143,-7.6191,-7.6264,-7.6311,-7.6368,-7.6454,-7.6522,-7.6553,-7.662,-7.6664,-7.6659,-7.6682,-7.6678,-7.6685,-7.6549,-7.6526,-7.6685,-7.6685,-7.6685,-7.6685,-7.6685,-7.6685,-7.597,-7.6069,-7.6082,-7.6201,-7.6232,-7.6314,-7.6347,-7.6391,-7.6429,-7.6526,-7.6584,-7.6605,-7.6645,-7.6715,-7.6776,-7.6783,-7.6808,-7.6835,-7.6839,-7.6711,-7.6694,-7.6678,-7.6656,-7.684,-7.6841,-7.697,-7.6971,-7.6972]}]]